This demonstration page uses our WeatherBlox Daily Observations layout. Learn more.

Left ArrowRight Arrow

Hourly Observations for May 21, 2019

Temp ( °F °C ) Dew Point ( °F °C ) Humidity (%) Winds ( mph kmh ) Pressure ( in mb ) Visibility ( mi km ) Precip ( " mm )
12:27 am 00:27 Cloudy with Nearby Thunderstorms 62 16.7 60 15.6 93 93 WNW 8 13 29.82 1010 5 8 0.18 4.57
12:43 am 00:43 Cloudy with Nearby Thunderstorms 62 16.7 60 15.6 93 93 SSW 6 9 29.83 1010 5 8 0.21 5.33
12:52 am 00:52 Cloudy with Nearby Thunderstorms 61 16.1 60 15.6 97 97 SSW 5 7 29.80 1009 7 11 0.24 6.10
1:36 am 01:36 Cloudy with Light Rain 61 16.1 59 15 93 93 WSW 5 7 29.83 1010 9 14 0.01 0.25
1:52 am 01:52 Cloudy with Rain 61 16.1 60 15.6 97 97 Calm 29.83 1010 7 11 0.05 1.27
2:16 am 02:16 Cloudy with Light Rain 61 16.1 60 15.6 97 97 Calm 29.84 1011 10 16 0.02 0.51
2:42 am 02:42 Cloudy with Light Rain 60 15.6 58 14.4 93 93 NW 3 6 29.84 1011 8 13 0.03 0.76
2:52 am 02:52 Cloudy with Light Rain 60 15.6 58 14.4 93 93 Calm 29.84 1010 10 16 0.03 0.76
3:08 am 03:08 Cloudy with Light Rain 59 15 57 13.9 93 93 N 6 9 29.83 1010 7 11 0.01 0.25
3:21 am 03:21 Cloudy with Light Rain 59 15 58 14.4 96 96 Calm 29.84 1010 7 11 0.01 0.25
3:27 am 03:27 Cloudy with Heavy Rain 60 15.6 58 14.4 93 93 ESE 5 7 29.82 1010 4 6 0.05 1.27
3:49 am 03:49 Cloudy with Light Rain 61 16 59 15 94 94 E 8 13 29.79 1009 10 16 0.07 1.78
3:52 am 03:52 Cloudy with Light Rain 62 16.7 60 15.6 93 93 ESE 7 11 29.79 1009 8 13 0.07 1.78
4:52 am 04:52 Cloudy 62 16.7 59 15 90 90 E 10 17 29.72 1006 10 16 0.03 0.76
5:52 am 05:52 Cloudy 63 17.2 59 15 87 87 ESE 12 19 29.70 1006 10 16 0.00 0.00
6:52 am 06:52 Cloudy 63 17.2 59 15 87 87 SE 12 19 29.70 1006 10 16 0.00 0.00
8:52 am 08:52 Mostly Sunny 66 18.9 60 15.6 81 81 SE 21 33 29.64 1004 10 16 0.00 0.00
9:33 am 09:33 Mostly Cloudy 68 20 62 16.7 81 81 SE 21 33 29.61 1003 10 16 0.00 0.00
9:52 am 09:52 Cloudy 69 20.6 63 17.2 81 81 SE 25 41 29.60 1002 10 16 0.00 0.00
10:52 am 10:52 Cloudy 70 21.1 64 17.8 82 82 SSE 26 43 29.58 1002 10 16 0.00 0.00
11:22 am 11:22 Cloudy with Rain 66 18.9 62 16.7 87 87 W 17 28 29.61 1003 3 4 0.00 0.03
11:29 am 11:29 Cloudy with Heavy Rain 64 17.8 61 16.1 90 90 W 13 20 29.61 1003 2 2 0.12 3.05
11:38 am 11:38 Cloudy with Heavy Rain 64 17.8 61 16.1 90 90 W 5 7 29.60 1003 3 4 0.20 5.08
11:43 am 11:43 Cloudy with Light Rain 64 17.8 61 16.1 90 90 WSW 5 7 29.60 1003 3 5 0.22 5.59
11:52 am 11:52 Cloudy with Light Rain 65 18.3 61 16.1 87 87 WSW 9 15 29.61 1003 7 11 0.24 6.10
12:36 pm 12:36 Cloudy with Nearby Thunderstorms 64 17.8 61 16.1 90 90 N 7 11 29.55 1001 10 16 0.03 0.76
12:48 pm 12:48 Cloudy with Thunderstorms 64 18 61 16 88 88 N 16 26 29.59 1002 10 16 0.03 0.76
12:55 pm 12:55 Cloudy with Strong Thunderstorms 63 17.2 60 15.6 90 90 NW 14 22 29.59 1002 2 3 0.06 1.52
1:02 pm 13:02 Cloudy with Strong Thunderstorms 63 17.2 61 16.1 93 93 N 13 20 29.55 1001 1 2 0.23 5.84
1:09 pm 13:09 Cloudy with Thunderstorms 63 17.2 61 16.1 93 93 SE 10 17 29.59 1002 4 6 0.25 6.35
1:22 pm 13:22 Cloudy with Nearby Thunderstorms 64 17.8 61 16.1 90 90 ESE 6 9 29.57 1002 5 8 0.28 7.11
1:34 pm 13:34 Cloudy with Light Rain 65 18.3 62 16.7 90 90 ENE 7 11 29.54 1000 8 13 0.31 7.87
1:52 pm 13:52 Cloudy with Light Rain 65 18.3 62 16.7 90 90 ENE 6 9 29.54 1000 10 16 0.32 8.13
2:12 pm 14:12 Cloudy with Rain 64 17.8 62 16.7 93 93 NW 6 9 29.56 1001 2 3 0.02 0.51
2:16 pm 14:16 Cloudy with Nearby Thunderstorms 64 17.8 62 16.7 93 93 WNW 12 19 29.57 1002 1 2 0.08 2.03
2:18 pm 14:18 Cloudy with Nearby Thunderstorms 64 17.8 62 16.7 93 93 WNW 17 28 29.58 1002 1 1 0.16 4.06
2:21 pm 14:21 Cloudy with Strong Thunderstorms 64 17.8 61 16.1 90 90 WSW 22 35 29.59 1002 1 1 0.27 6.86
2:34 pm 14:34 Cloudy with Nearby Thunderstorms 63 17.2 60 15.6 90 90 SW 13 20 29.56 1001 2 3 0.64 16.26
2:36 pm 14:36 Cloudy with Nearby Thunderstorms 64 17.8 60 15.6 87 87 SW 10 17 29.54 1000 4 6 0.64 16.26
2:43 pm 14:43 Cloudy with Nearby Thunderstorms 64 17.8 60 15.6 87 87 SSW 6 9 29.53 1000 10 16 0.65 16.51
2:52 pm 14:52 Cloudy with Nearby Thunderstorms 65 18.3 61 16.1 87 87 SW 17 28 29.60 1002 10 16 0.65 16.51
3:02 pm 15:02 Cloudy with Light Rain 65 18.3 60 15.6 84 84 WSW 14 22 29.58 1002 10 16 0.00 0.03
3:52 pm 15:52 Cloudy with Light Rain 63 17.2 58 14.4 84 84 S 9 15 29.58 1002 9 14 0.09 2.29
4:52 pm 16:52 Cloudy with Light Rain 61 16.1 56 13.3 84 84 SSE 15 24 29.54 1000 10 16 0.06 1.52
5:52 pm 17:52 Partly Cloudy 63 17.2 56 13.3 78 78 SSE 18 30 29.55 1001 10 16 0.00 0.03
6:52 pm 18:52 Mostly Sunny 63 17.2 54 12.2 73 73 S 17 28 29.54 1000 10 16 0.00 0.00
7:52 pm 19:52 Sunny 61 16.1 54 12.2 78 78 SSE 15 24 29.59 1002 10 16 0.00 0.00
8:52 pm 20:52 Clear 58 14.4 53 11.7 84 84 SSE 12 19 29.62 1003 10 16 0.00 0.00
9:52 pm 21:52 Clear 58 14.4 54 12.2 87 87 SSE 14 22 29.63 1003 10 16 0.00 0.00
10:52 pm 22:52 Clear 58 14.4 53 11.7 84 84 SSE 16 26 29.63 1003 10 16 0.00 0.00
11:52 pm 23:52 Clear 57 13.9 52 11.1 83 83 SSE 15 24 29.64 1004 10 16 0.00 0.00

Powered by AerisWeather